DW0156 Weather Reports


time (UTC)temp
F
wind
direction
speed
knots
gust
knots
rain 1hr
in
rain 24hr
in
rain mn
in
humidity
%
barometer
mb
20260905163334 55 263 2.6 7.8 0.00 0.15 0.00 86 1021.1
20260905162831 55 263 2.6 7.8 0.00 0.15 0.00 86 1021.1
20260905162331 55 263 1.7 7.8 0.00 0.15 0.00 86 1021.1
20260905161143 55 263 1.7 5.2 0.00 0.15 0.00 85 1021.2
20260905160629 55 263 1.7 4.3 0.00 0.15 0.00 85 1021.2
20260905160117 55 263 0.9 4.3 0.00 0.15 0.00 85 1021.2
20260905155604 55 263 0.9 5.2 0.00 0.15 0.00 84 1021.2
20260905155050 56 263 1.7 5.2 0.00 0.15 0.00 84 1021.2
20260905153951 56 263 1.7 5.2 0.00 0.15 0.00 83 1021.1
20260905153500 56 263 1.7 5.2 0.00 0.15 0.00 83 1021.1
20260905152955 56 263 1.7 5.2 0.00 0.15 0.00 82 1021.1
20260905152502 56 263 1.7 5.2 0.00 0.15 0.00 82 1021.1
20260905151338 56 263 0.9 4.3 0.00 0.15 0.00 80 1021.1
20260905150822 56 263 0.0 5.2 0.00 0.15 0.00 80 1021.1
20260905150320 56 263 0.9 5.2 0.00 0.15 0.00 80 1021.1
20260905145823 56 263 1.7 9.6 0.00 0.15 0.00 79 1021.1
20260905145306 56 263 2.6 9.6 0.00 0.15 0.00 79 1021.1
20260905144757 56 263 2.6 9.6 0.00 0.15 0.00 79 1021.1
20260905144245 56 263 1.7 9.6 0.00 0.15 0.00 79 1021.0
20260905143115 56 263 1.7 7.0 0.00 0.15 0.00 79 1021.0
20260905142618 56 263 2.6 9.6 0.00 0.15 0.15 79 1021.1
20260905142107 56 263 3.5 9.6 0.00 0.15 0.15 79 1021.1
20260905141613 56 263 4.3 11.3 0.00 0.15 0.15 79 1021.1
20260905140441 56 263 4.3 11.3 0.00 0.15 0.15 79 1021.1
20260905134648 56 263 2.6 7.8 0.00 0.16 0.15 81 1021.0
20260905134129 56 263 2.6 8.7 0.00 0.16 0.15 81 1020.8
20260905133616 56 263 2.6 8.7 0.00 0.16 0.15 80 1020.8
20260905133120 56 263 2.6 13.0 0.00 0.16 0.15 80 1020.8
20260905132004 56 263 5.2 13.0 0.00 0.16 0.15 79 1020.8
20260905131513 56 263 5.2 13.0 0.00 0.16 0.15 79 1020.8
20260905130959 56 263 5.2 11.3 0.00 0.16 0.15 79 1020.7
20260905130458 56 263 4.3 11.3 0.00 0.16 0.15 79 1020.7
20260905130004 56 263 5.2 12.2 0.00 0.16 0.15 79 1020.7
20260905125504 56 263 5.2 12.2 0.00 0.16 0.15 79 1020.6
20260905125005 56 263 4.3 12.2 0.00 0.16 0.15 80 1020.6
20260905124510 56 263 4.3 12.2 0.00 0.16 0.15 80 1020.6
20260905124017 56 263 3.5 8.7 0.00 0.16 0.15 81 1020.4
20260905123521 56 263 3.5 8.7 0.00 0.16 0.15 81 1020.4
20260905121744 56 263 4.3 11.3 0.00 0.16 0.15 80 1020.2
20260905121233 56 263 4.3 10.4 0.00 0.16 0.15 80 1020.1
20260905120741 56 263 3.5 12.2 0.00 0.16 0.15 80 1020.1
20260905120246 56 263 4.3 12.2 0.00 0.16 0.15 80 1020.1
20260905115744 56 263 5.2 12.2 0.00 0.16 0.15 80 1020.0
20260905115241 56 263 5.2 12.2 0.00 0.16 0.15 80 1020.0
20260905114726 56 263 4.3 10.4 0.00 0.16 0.15 81 1020.0
20260905114223 56 263 2.6 7.8 0.00 0.16 0.15 81 1019.9
20260905113720 56 263 2.6 7.8 0.00 0.16 0.15 81 1019.9
20260905113214 56 263 2.6 7.8 0.00 0.16 0.15 81 1019.9
20260905112707 56 263 3.5 11.3 0.00 0.16 0.15 81 1019.7
20260905112149 56 263 4.3 11.3 0.00 0.16 0.15 81 1019.7
20260905111644 56 263 4.3 11.3 0.00 0.16 0.15 81 1019.7
20260905111132 56 263 4.3 11.3 0.00 0.16 0.15 81 1019.6
20260905110641 56 263 3.5 10.4 0.00 0.16 0.15 81 1019.6
20260905110137 56 263 3.5 10.4 0.00 0.16 0.15 81 1019.6
20260905105625 56 263 3.5 10.4 0.00 0.16 0.15 81 1019.4
20260905105109 56 263 4.3 10.4 0.00 0.16 0.15 81 1019.4
20260905104003 56 263 5.2 11.3 0.00 0.16 0.15 81 1019.2
20260905103500 56 263 4.3 11.3 0.00 0.16 0.15 81 1019.2
20260905102944 56 263 5.2 13.9 0.00 0.16 0.15 81 1019.2
20260905102425 56 263 5.2 13.9 0.00 0.16 0.15 80 1019.1
20260905101932 56 263 6.1 13.9 0.00 0.16 0.15 80 1019.1
20260905100751 57 263 5.2 11.3 0.00 0.16 0.15 80 1018.7
20260905100257 56 263 4.3 10.4 0.00 0.16 0.15 80 1018.7
20260905095743 56 263 4.3 10.4 0.00 0.16 0.15 80 1018.6
20260905095238 56 263 5.2 10.4 0.00 0.16 0.15 80 1018.6
20260905094725 56 263 5.2 9.6 0.00 0.16 0.15 79 1018.6
20260905094227 56 263 4.3 16.5 0.00 0.16 0.15 79 1018.5
20260905093719 56 263 4.3 16.5 0.00 0.16 0.15 78 1018.5
20260905093224 57 263 7.0 16.5 0.00 0.16 0.15 77 1018.5
20260905092707 57 263 7.0 16.5 0.00 0.16 0.15 76 1018.1
20260905092205 57 263 6.1 12.2 0.00 0.16 0.15 75 1018.1
20260905091659 57 263 6.1 12.2 0.00 0.16 0.15 75 1018.1
20260905091139 57 263 5.2 14.8 0.00 0.16 0.15 75 1018.0
20260905090636 57 263 5.2 14.8 0.00 0.16 0.15 75 1018.0
20260905090143 57 263 7.0 14.8 0.00 0.16 0.15 75 1018.0
20260905084406 57 263 6.1 13.0 0.00 0.16 0.15 75 1017.2
20260905083854 57 263 6.1 15.6 0.00 0.16 0.15 74 1017.2
20260905083344 58 263 7.0 15.6 0.00 0.16 0.15 73 1017.2
20260905082203 58 263 7.8 15.6 0.00 0.16 0.15 70 1016.9
20260905081644 58 263 7.8 20.9 0.00 0.16 0.15 70 1016.9
20260905081138 58 263 7.8 20.9 0.00 0.16 0.15 70 1016.4
20260905080623 58 263 8.7 20.9 0.00 0.16 0.15 69 1016.4
20260905080126 58 263 9.6 20.9 0.00 0.16 0.15 69 1016.4
20260905075615 58 263 7.8 18.2 0.00 0.16 0.15 68 1016.1
20260905074451 58 263 7.8 17.4 0.00 0.16 0.15 69 1016.1
20260905073935 59 263 6.1 14.8 0.00 0.16 0.15 69 1015.9
20260905073433 59 263 6.1 13.9 0.00 0.16 0.15 70 1015.9
20260905072928 59 263 7.0 13.9 0.00 0.16 0.15 69 1015.9
20260905072434 59 263 7.0 13.9 0.00 0.16 0.15 68 1015.8
20260905071923 59 263 7.0 13.9 0.00 0.16 0.15 68 1015.8
20260905071416 60 263 7.0 18.2 0.00 0.16 0.15 67 1015.8
20260905070903 59 263 7.0 18.2 0.00 0.16 0.15 67 1015.7
20260905070406 59 263 7.8 18.2 0.00 0.16 0.15 66 1015.7
20260905065904 59 263 8.7 18.2 0.00 0.16 0.15 66 1015.4
20260905064755 60 263 8.7 17.4 0.00 0.16 0.15 66 1015.4
20260905064241 60 263 8.7 20.0 0.00 0.16 0.15 66 1015.4
20260905063746 60 263 9.6 20.0 0.00 0.16 0.15 67 1015.4
20260905063241 60 263 10.4 20.0 0.00 0.16 0.15 67 1015.4
20260905062720 60 263 10.4 20.0 0.00 0.16 0.15 69 1015.2
20260905062218 60 263 11.3 20.0 0.00 0.16 0.15 68 1015.2
20260905061727 60 263 10.4 20.0 0.00 0.16 0.15 68 1015.2
20260905061220 60 263 9.6 17.4 0.00 0.16 0.15 70 1015.0
20260905060713 59 263 8.7 18.2 0.00 0.16 0.15 69 1015.0
20260905055541 59 263 8.7 20.9 0.00 0.16 0.15 71 1015.0
20260905055035 58 263 9.6 20.9 0.00 0.16 0.15 73 1015.0
20260905054536 58 263 8.7 20.9 0.00 0.16 0.15 73 1015.0
20260905054046 58 263 7.0 20.9 0.00 0.16 0.15 75 1015.0
20260905053543 58 263 8.7 19.1 0.00 0.16 0.15 76 1015.0
20260905053040 58 263 10.4 19.1 0.00 0.16 0.15 74 1015.0
20260905052521 59 263 8.7 18.2 0.00 0.15 0.15 71 1014.8
20260905052003 60 263 7.8 15.6 0.00 0.15 0.14 69 1014.8
20260905051458 60 263 7.8 16.5 0.00 0.15 0.14 68 1014.8
20260905050950 60 263 7.8 16.5 0.00 0.15 0.14 69 1014.5
20260905050453 59 263 8.7 16.5 0.00 0.15 0.14 70 1014.5
20260905045941 59 263 8.7 16.5 0.00 0.15 0.14 69 1014.5
20260905045440 60 263 8.7 20.9 0.00 0.15 0.14 68 1014.2
20260905044326 61 263 8.7 20.9 0.00 0.16 0.14 67 1014.0
20260905043828 60 263 7.8 18.2 0.00 0.16 0.14 67 1014.0
20260905041427 59 263 9.6 20.0 0.00 0.16 0.14 74 1014.2
20260905040918 59 263 9.6 20.0 0.00 0.16 0.14 69 1013.8
20260905040400 61 263 7.8 21.7 0.00 0.15 0.14 63 1013.8
20260905035844 61 263 9.6 21.7 0.00 0.15 0.14 63 1013.9
20260905035333 61 263 9.6 21.7 0.00 0.15 0.14 63 1013.9
20260905034836 60 263 7.8 21.7 0.00 0.15 0.14 63 1013.9
20260905034319 60 263 6.1 19.1 0.00 0.15 0.14 67 1014.0
20260905033148 60 263 7.0 19.1 0.00 0.15 0.14 65 1014.0
20260905032655 60 263 7.0 16.5 0.00 0.15 0.14 64 1014.1
20260905032152 60 263 7.8 16.5 0.00 0.15 0.14 66 1014.1
20260905031028 59 263 7.0 16.5 0.00 0.15 0.14 71 1014.2
20260905025907 59 263 9.6 18.2 0.00 0.16 0.14 69 1013.9
20260905025402 60 263 9.6 18.2 0.00 0.16 0.14 65 1013.9
20260905024843 60 263 8.7 17.4 0.00 0.16 0.14 64 1013.9
20260905024333 61 263 7.8 16.5 0.00 0.16 0.14 63 1013.9
20260905023818 61 263 7.0 16.5 0.00 0.16 0.14 63 1013.9
20260905022654 59 263 8.7 21.7 0.00 0.16 0.14 65 1013.9
20260905021558 59 263 8.7 21.7 0.00 0.16 0.14 66 1013.9
20260905021049 59 263 8.7 17.4 0.00 0.16 0.14 65 1013.7
20260905020600 59 263 7.0 17.4 0.00 0.18 0.14 66 1013.7
20260905020044 59 263 6.1 15.6 0.00 0.18 0.14 66 1013.7
20260905015526 60 263 5.2 15.6 0.00 0.18 0.14 66 1013.5
20260905015031 60 263 5.2 15.6 0.00 0.18 0.14 66 1013.5
20260905014535 60 263 6.1 15.6 0.00 0.18 0.14 66 1013.5
20260905014017 59 263 5.2 14.8 0.00 0.18 0.14 66 1013.6
20260905013457 59 263 6.1 16.5 0.00 0.19 0.14 67 1013.6
20260905012954 59 263 7.8 16.5 0.00 0.20 0.14 67 1013.6
20260905011818 59 263 9.6 17.4 0.00 0.20 0.14 66 1013.3
20260905011304 58 263 10.4 21.7 0.00 0.20 0.14 68 1013.1
20260905010749 58 263 9.6 21.7 0.00 0.20 0.14 70 1013.1
20260905005624 57 263 7.0 21.7 0.00 0.20 0.14 79 1012.7
20260905005125 57 288 5.2 15.6 0.00 0.20 0.14 85 1012.7
20260905004606 56 263 5.2 15.6 0.00 0.20 0.14 86 1012.7
20260905004102 56 263 5.2 15.6 0.00 0.20 0.14 86 1012.7
20260905003543 56 263 5.2 15.6 0.00 0.20 0.14 86 1012.7
20260905003039 56 263 4.3 10.4 0.00 0.20 0.14 86 1012.7
20260905002520 55 263 5.2 15.6 0.03 0.20 0.14 86 1012.6
20260905002021 56 263 6.1 15.6 0.05 0.20 0.14 85 1012.6
20260905001517 56 263 5.2 16.5 0.11 0.20 0.14 85 1012.6
20260905001007 56 263 5.2 16.5 0.75 0.15 0.11 85 1012.4
20260905000505 56 263 6.1 16.5 0.00 0.14 0.08 85 1012.4
20260905000011 56 263 6.1 16.5 0.00 0.14 0.08 85 1012.4
20260904235508 56 263 6.1 13.9 0.00 0.14 0.08 85 1012.2
20260904234955 56 263 5.2 13.9 0.00 0.14 0.08 86 1012.2
20260904234442 56 263 5.2 12.2 0.00 0.14 0.08 86 1012.2
20260904233934 56 263 5.2 13.9 0.00 0.14 0.08 86 1012.1
20260904232802 55 263 4.3 13.9 0.03 0.14 0.08 85 1011.9
20260904232253 55 263 5.2 13.0 0.03 0.14 0.08 84 1011.9
20260904231755 56 263 5.2 14.8 0.07 0.14 0.08 82 1011.9
20260904231301 57 263 6.1 14.8 0.11 0.14 0.08 81 1011.5
20260904230802 58 263 5.2 14.8 0.27 0.13 0.07 80 1011.5
20260904230245 58 263 4.3 14.8 0.87 0.07 0.02 77 1011.5
20260904225735 58 263 2.6 13.0 0.00 0.07 0.00 76 1011.2
20260904225222 58 263 2.6 11.3 0.00 0.07 0.00 76 1011.2
20260904224111 58 263 2.6 13.0 0.00 0.07 0.00 76 1011.2
20260904223558 58 263 3.5 13.0 0.00 0.07 0.00 76 1011.2
20260904223052 58 263 3.5 13.0 0.00 0.07 0.00 77 1011.2
20260904222533 58 263 3.5 13.0 0.00 0.07 0.00 77 1011.1
20260904222030 57 263 3.5 12.2 0.00 0.07 0.00 78 1011.1
20260904221517 57 263 3.5 12.2 0.00 0.07 0.00 78 1011.1
20260904221007 57 263 3.5 9.6 0.00 0.07 0.00 78 1010.9
20260904220449 57 263 3.5 9.6 0.00 0.07 0.00 79 1010.9
20260904215937 57 263 2.6 8.7 0.00 0.07 0.00 79 1010.9
20260904215439 57 263 3.5 9.6 0.00 0.07 0.00 79 1010.6
20260904214942 57 263 3.5 9.6 0.00 0.07 0.00 79 1010.6
20260904213216 57 263 2.6 11.3 0.00 0.07 0.00 78 1010.6
20260904212038 58 263 2.6 12.2 0.00 0.07 0.00 78 1010.6
20260904211527 58 263 3.5 12.2 0.00 0.07 0.00 77 1010.6
20260904210402 58 263 3.5 10.4 0.00 0.07 0.00 77 1010.4
20260904205208 58 263 2.6 8.7 0.00 0.07 0.00 76 1010.4
20260904204108 58 263 2.6 13.0 0.00 0.07 0.00 75 1010.2
20260904202932 58 263 5.2 12.2 0.00 0.07 0.00 73 1010.2
20260904202432 58 263 4.3 13.0 0.00 0.07 0.00 73 1010.1
20260904201923 58 263 6.1 13.0 0.00 0.07 0.00 73 1010.1
20260904201429 58 263 7.0 16.5 0.00 0.07 0.00 73 1010.1
20260904200929 59 263 7.0 16.5 0.00 0.07 0.00 74 1010.0
20260904200431 59 263 7.8 17.4 0.00 0.07 0.00 75 1010.0
20260904195921 59 263 7.0 17.4 0.00 0.07 0.00 76 1010.0
20260904195418 59 263 6.1 17.4 0.00 0.07 0.00 77 1009.7
20260904194912 59 263 5.2 17.4 0.00 0.07 0.00 78 1009.7
20260904194408 60 263 5.2 13.0 0.00 0.06 0.00 79 1009.7
20260904193917 60 263 4.3 12.2 0.00 0.06 0.00 79 1009.5
20260904193402 60 263 3.5 12.2 0.00 0.06 0.00 80 1009.5
20260904192853 60 263 3.5 13.9 0.00 0.06 0.00 80 1009.2
20260904192345 60 263 3.5 13.9 0.00 0.06 0.00 80 1009.2
20260904191845 60 263 3.5 13.9 0.00 0.06 0.00 80 1009.2
20260904191330 60 263 2.6 13.9 0.00 0.06 0.00 80 1009.1
20260904190820 60 263 2.6 11.3 0.00 0.06 0.00 80 1009.1
20260904190307 60 263 2.6 9.6 0.00 0.06 0.00 79 1009.1
20260904185812 60 263 2.6 8.7 0.00 0.06 0.00 79 1008.9
20260904185256 60 263 1.7 11.3 0.00 0.06 0.00 79 1008.9
20260904184739 60 263 1.7 11.3 0.00 0.06 0.00 78 1008.9
20260904184235 60 263 2.6 11.3 0.00 0.06 0.00 78 1008.6
20260904183738 60 263 2.6 11.3 0.00 0.06 0.00 79 1008.6
20260904183222 60 263 1.7 7.0 0.00 0.06 0.00 80 1008.6
20260904182732 60 263 0.9 7.0 0.00 0.06 0.00 81 1008.8
20260904182221 60 263 0.9 7.0 0.00 0.06 0.00 81 1008.8
20260904181713 60 263 0.9 6.1 0.00 0.06 0.00 81 1008.8
20260904181214 60 263 0.9 6.1 0.00 0.06 0.00 81 1008.5
20260904180714 60 263 0.9 7.8 0.00 0.06 0.00 81 1008.5
20260904180216 60 263 1.7 7.8 0.00 0.06 0.00 81 1008.5
20260904175724 60 263 1.7 9.6 0.00 0.06 0.00 81 1008.4
20260904175211 60 263 0.9 9.6 0.00 0.06 0.00 81 1008.4
20260904174710 60 263 0.9 9.6 0.00 0.06 0.00 81 1008.4
20260904174207 61 263 1.7 9.6 0.00 0.06 0.00 81 1008.4
20260904173042 61 263 1.7 7.0 0.00 0.06 0.00 81 1008.4
20260904171932 61 263 1.7 4.3 0.00 0.06 0.00 81 1008.5
20260904171424 61 263 0.9 4.3 0.00 0.06 0.00 81 1008.5
20260904170932 61 263 0.9 5.2 0.00 0.06 0.00 80 1008.5
20260904170427 61 263 0.9 5.2 0.00 0.06 0.00 80 1008.5
20260904165916 61 263 0.9 5.2 0.00 0.06 0.00 80 1008.5
20260904165359 61 263 0.9 5.2 0.00 0.06 0.00 80 1008.6
20260904164248 61 263 1.7 4.3 0.00 0.06 0.00 80 1008.8
20260904163752 61 263 1.7 4.3 0.00 0.06 0.00 80 1008.8